Total_Precipitation_Accumulation
0.29 0.24 0.32 0.35 0.32 0.35 0.49 0.48 0.38 0.20 0.18 0.17 0.15 0.15 0.16 0.16 0.15 0.14 0.11 0.11 0.12 0.14 0.17 0.22 0.26 0.29 0.32 0.37 0.47 0.54 0.53 0.61 0.64 0.71 0.80 0.80 0.78 0.81 0.90 1.03 1.10 1.14 1.11 1.04
0.29 0.18 0.23 0.28 0.23 0.24 0.26 0.22 0.20 0.15 0.17 0.17 0.17 0.15 0.15 0.15 0.15 0.16 0.14 0.12 0.13 0.14 0.17 0.24 0.28 0.32 0.36 0.40 0.45 0.53 0.53 0.58 0.60 0.68 0.79 0.82 0.76 0.79 0.90 1.00 1.05 1.07 1.07 1.06
0.54 0.23 0.43 0.47 0.27 0.23 0.24 0.22 0.20 0.22 0.22 0.18 0.17 0.17 0.18 0.17 0.17 0.17 0.15 0.14 0.14 0.17 0.21 0.24 0.30 0.31 0.37 0.41 0.45 0.51 0.53 0.54 0.60 0.69 0.73 0.80 0.80 0.82 0.92 1.01 1.04 1.03 1.01 1.00
0.87 0.63 0.90 0.44 0.19 0.19 0.23 0.25 0.22 0.20 0.16 0.16 0.18 0.19 0.21 0.20 0.20 0.20 0.19 0.19 0.17 0.19 0.23 0.23 0.27 0.27 0.31 0.37 0.48 0.55 0.55 0.52 0.59 0.66 0.69 0.78 0.83 0.85 0.95 1.03 1.01 1.01 1.00 0.97
1.20 0.87 0.46 0.24 0.22 0.29 0.37 0.37 0.25 0.19 0.13 0.12 0.14 0.18 0.23 0.19 0.19 0.21 0.21 0.23 0.22 0.21 0.22 0.22 0.25 0.25 0.25 0.31 0.44 0.55 0.58 0.52 0.55 0.63 0.68 0.76 0.81 0.88 0.95 1.03 1.00 0.97 0.96 0.98
1.33 0.97 0.47 0.30 0.21 0.24 0.35 0.49 0.27 0.19 0.17 0.15 0.18 0.28 0.27 0.22 0.20 0.20 0.20 0.21 0.22 0.21 0.21 0.22 0.25 0.26 0.24 0.28 0.37 0.48 0.57 0.49 0.51 0.57 0.61 0.69 0.76 0.86 0.93 0.93 0.92 0.94 0.91 0.91
1.10 0.86 0.35 0.23 0.21 0.26 0.55 0.62 0.31 0.24 0.22 0.22 0.27 0.29 0.26 0.24 0.25 0.24 0.23 0.22 0.20 0.20 0.22 0.25 0.26 0.25 0.26 0.29 0.33 0.42 0.53 0.49 0.51 0.55 0.58 0.66 0.75 0.78 0.85 0.89 0.87 0.92 0.91 0.89
0.84 0.90 0.46 0.26 0.33 0.55 0.64 0.35 0.26 0.24 0.23 0.23 0.22 0.19 0.19 0.22 0.26 0.29 0.26 0.22 0.22 0.21 0.22 0.23 0.24 0.27 0.28 0.32 0.33 0.40 0.49 0.50 0.55 0.60 0.61 0.65 0.71 0.70 0.73 0.83 0.87 0.89 0.93 0.96
0.72 0.57 0.37 0.32 0.41 0.43 0.35 0.29 0.23 0.22 0.22 0.22 0.21 0.19 0.20 0.23 0.27 0.30 0.28 0.24 0.24 0.24 0.22 0.22 0.23 0.28 0.33 0.37 0.37 0.42 0.47 0.50 0.56 0.63 0.66 0.67 0.66 0.68 0.72 0.78 0.85 0.89 0.90 0.92
0.48 0.33 0.25 0.24 0.25 0.24 0.22 0.22 0.21 0.20 0.20 0.20 0.20 0.19 0.20 0.21 0.25 0.27 0.28 0.27 0.27 0.27 0.25 0.24 0.24 0.27 0.35 0.40 0.39 0.43 0.46 0.48 0.54 0.59 0.66 0.69 0.64 0.62 0.65 0.73 0.85 0.86 0.86 0.84
0.34 0.23 0.21 0.20 0.19 0.18 0.17 0.15 0.15 0.15 0.14 0.16 0.18 0.18 0.20 0.22 0.26 0.29 0.30 0.30 0.29 0.30 0.29 0.27 0.26 0.30 0.37 0.40 0.40 0.44 0.43 0.43 0.47 0.50 0.62 0.72 0.71 0.65 0.64 0.65 0.81 0.90 0.85 0.82
0.30 0.21 0.26 0.23 0.18 0.17 0.17 0.15 0.16 0.16 0.14 0.13 0.15 0.18 0.19 0.20 0.23 0.31 0.35 0.33 0.31 0.31 0.31 0.31 0.32 0.35 0.40 0.41 0.41 0.41 0.42 0.42 0.44 0.48 0.56 0.66 0.70 0.72 0.78 0.76 0.79 0.79 0.78 0.83
0.22 0.16 0.17 0.17 0.16 0.15 0.16 0.15 0.14 0.15 0.16 0.14 0.14 0.16 0.18 0.19 0.21 0.28 0.33 0.34 0.34 0.35 0.35 0.35 0.36 0.40 0.44 0.44 0.43 0.43 0.43 0.44 0.45 0.49 0.54 0.61 0.63 0.63 0.74 0.85 0.88 0.82 0.77 0.78
0.12 0.12 0.12 0.12 0.14 0.15 0.16 0.15 0.12 0.12 0.14 0.14 0.13 0.14 0.14 0.17 0.19 0.26 0.35 0.37 0.35 0.33 0.35 0.37 0.38 0.44 0.48 0.50 0.49 0.46 0.45 0.49 0.52 0.51 0.54 0.61 0.61 0.58 0.62 0.69 0.77 0.81 0.82 0.80
0.09 0.12 0.13 0.12 0.14 0.15 0.17 0.15 0.13 0.13 0.14 0.13 0.13 0.14 0.14 0.17 0.21 0.30 0.37 0.37 0.35 0.33 0.36 0.39 0.41 0.48 0.51 0.55 0.54 0.49 0.49 0.51 0.55 0.54 0.57 0.61 0.62 0.61 0.61 0.63 0.66 0.70 0.78 0.85
0.13 0.13 0.12 0.12 0.14 0.16 0.18 0.18 0.16 0.16 0.16 0.16 0.16 0.16 0.16 0.18 0.21 0.27 0.34 0.38 0.39 0.39 0.42 0.43 0.48 0.56 0.59 0.62 0.60 0.55 0.56 0.63 0.64 0.59 0.60 0.64 0.66 0.68 0.67 0.66 0.68 0.69 0.72 0.78
0.16 0.15 0.13 0.13 0.14 0.16 0.20 0.22 0.20 0.17 0.17 0.18 0.18 0.18 0.16 0.17 0.18 0.22 0.29 0.36 0.40 0.43 0.45 0.48 0.54 0.59 0.63 0.68 0.67 0.63 0.63 0.67 0.72 0.65 0.63 0.69 0.74 0.74 0.72 0.73 0.75 0.72 0.68 0.74
0.16 0.17 0.16 0.16 0.16 0.16 0.18 0.20 0.20 0.17 0.18 0.18 0.18 0.16 0.17 0.19 0.22 0.25 0.29 0.34 0.36 0.36 0.40 0.48 0.57 0.62 0.64 0.71 0.74 0.70 0.68 0.70 0.72 0.70 0.68 0.73 0.79 0.79 0.78 0.79 0.78 0.76 0.72 0.75
0.12 0.13 0.13 0.13 0.13 0.13 0.15 0.17 0.18 0.16 0.16 0.17 0.18 0.19 0.21 0.22 0.24 0.27 0.28 0.30 0.33 0.38 0.43 0.49 0.59 0.59 0.62 0.71 0.78 0.74 0.73 0.76 0.78 0.78 0.73 0.79 0.83 0.82 0.81 0.80 0.79 0.75 0.75 0.75
0.11 0.12 0.12 0.12 0.11 0.12 0.13 0.14 0.16 0.15 0.15 0.18 0.19 0.21 0.24 0.24 0.26 0.27 0.28 0.30 0.37 0.48 0.50 0.55 0.58 0.61 0.64 0.68 0.74 0.76 0.80 0.82 0.83 0.84 0.80 0.79 0.83 0.87 0.85 0.83 0.81 0.80 0.79 0.78
0.14 0.14 0.15 0.14 0.13 0.12 0.14 0.15 0.17 0.17 0.16 0.19 0.22 0.24 0.25 0.25 0.27 0.29 0.30 0.31 0.34 0.44 0.50 0.58 0.61 0.67 0.68 0.71 0.77 0.81 0.86 0.86 0.88 0.90 0.90 0.87 0.87 0.89 0.87 0.86 0.85 0.82 0.81 0.81
0.19 0.19 0.20 0.19 0.17 0.16 0.16 0.16 0.18 0.20 0.20 0.22 0.24 0.26 0.26 0.26 0.27 0.29 0.33 0.37 0.40 0.49 0.55 0.60 0.67 0.77 0.81 0.81 0.77 0.81 0.86 0.87 0.89 0.91 0.93 0.90 0.91 0.93 0.91 0.89 0.90 0.84 0.80 0.80
0.24 0.25 0.25 0.23 0.21 0.19 0.18 0.18 0.20 0.23 0.26 0.27 0.28 0.29 0.29 0.29 0.31 0.33 0.37 0.38 0.43 0.55 0.62 0.68 0.79 0.87 0.91 0.83 0.79 0.82 0.87 0.88 0.90 0.93 0.95 0.93 0.92 0.93 0.93 0.91 0.90 0.87 0.84 0.81
0.27 0.28 0.28 0.27 0.25 0.22 0.22 0.24 0.24 0.28 0.32 0.32 0.33 0.34 0.36 0.35 0.34 0.36 0.41 0.46 0.52 0.62 0.67 0.76 0.86 0.91 0.94 0.86 0.82 0.85 0.89 0.89 0.89 0.92 0.95 0.96 0.96 0.96 0.94 0.93 0.93 0.87 0.81 0.78
0.29 0.29 0.28 0.28 0.29 0.29 0.28 0.29 0.29 0.31 0.34 0.35 0.35 0.36 0.39 0.40 0.42 0.42 0.44 0.48 0.56 0.63 0.68 0.75 0.84 0.89 0.90 0.89 0.86 0.88 0.90 0.92 0.94 0.98 0.99 0.99 0.98 0.97 0.95 0.91 0.88 0.86 0.82 0.77
0.32 0.32 0.32 0.32 0.34 0.34 0.33 0.33 0.35 0.37 0.37 0.38 0.38 0.39 0.42 0.44 0.46 0.47 0.50 0.53 0.58 0.64 0.67 0.71 0.78 0.85 0.88 0.89 0.88 0.89 0.91 0.96 0.99 0.96 0.94 0.95 0.94 0.94 0.92 0.88 0.83 0.80 0.79 0.76
0.38 0.37 0.36 0.37 0.37 0.39 0.39 0.39 0.41 0.43 0.44 0.44 0.46 0.44 0.44 0.47 0.48 0.51 0.53 0.56 0.60 0.65 0.68 0.72 0.78 0.84 0.89 0.91 0.94 0.95 0.95 0.94 0.94 0.94 0.94 0.93 0.90 0.90 0.88 0.85 0.83 0.80 0.78 0.75